AFL508 LLBG-UUEE

Flight info

Callsign AFL508
Flight time N/A
Altitude 32000
Route MERVA P42 DESPO N71 ALSUS L620 VESAR UB545 EVKIT/N0466F330 UT284 SIV/N0467F340 UT888 CRM/N0464F330 UG901 BALUM/K0859F330 G901 DIGRA/K0861F350 G901 INDIM/K0857F340 G901 LEKPI L91 NZ W79 AMEPU A100 KL L91 KANON T748 PEPOR T611 TUKMO N50 OLOPI OLOPI3F
Aircraft B738/M-SDE2E3FGHIRWXY/LB1

Departure

Time 2026-05-07 11:53
Airport Ben Gurion International Airport (LLBG)

Arrival

Time N/A
Airport Sheremetyevo International Airport (UUEE)
Time Latitude Longitude Altitude Speed Heading
2026-05-07 10:56 32.00203 34.87830 148 ft 0 kts 121°
2026-05-07 11:40 32.00211 34.87815 148 ft 2 kts 121°
2026-05-07 11:40 32.00217 34.87803 148 ft 0 kts 122°
2026-05-07 11:41 32.00223 34.87790 148 ft 2 kts 102°
2026-05-07 11:41 32.00223 34.87772 148 ft 2 kts 79°
2026-05-07 11:41 32.00218 34.87756 148 ft 2 kts 56°
2026-05-07 11:41 32.00209 34.87744 148 ft 0 kts 34°
2026-05-07 11:42 32.00208 34.87744 148 ft 2 kts 33°
2026-05-07 11:42 32.00238 34.87766 148 ft 6 kts 31°
2026-05-07 11:42 32.00260 34.87782 148 ft 1 kts 31°
2026-05-07 11:42 32.00261 34.87782 148 ft 0 kts 31°
2026-05-07 11:45 32.00265 34.87785 148 ft 0 kts 31°
2026-05-07 11:46 32.00291 34.87804 148 ft 8 kts 31°
2026-05-07 11:46 32.00357 34.87851 148 ft 11 kts 32°
2026-05-07 11:46 32.00485 34.87944 148 ft 11 kts 31°
2026-05-07 11:47 32.00557 34.87937 148 ft 10 kts 325°
2026-05-07 11:47 32.00622 34.87942 148 ft 9 kts 31°
2026-05-07 11:47 32.00644 34.87958 148 ft 0 kts 31°
2026-05-07 11:48 32.00646 34.87959 148 ft 1 kts 31°
2026-05-07 11:48 32.00675 34.87980 148 ft 7 kts 31°
2026-05-07 11:48 32.00740 34.88027 148 ft 13 kts 31°
2026-05-07 11:48 32.00839 34.88100 148 ft 19 kts 32°
2026-05-07 11:49 32.00966 34.88192 148 ft 21 kts 32°
2026-05-07 11:49 32.01089 34.88279 148 ft 19 kts 31°
2026-05-07 11:49 32.01202 34.88361 148 ft 18 kts 32°
2026-05-07 11:49 32.01302 34.88448 148 ft 16 kts 43°
2026-05-07 11:50 32.01384 34.88553 148 ft 18 kts 53°
2026-05-07 11:50 32.01452 34.88687 148 ft 20 kts 65°
2026-05-07 11:50 32.01498 34.88850 148 ft 21 kts 78°
2026-05-07 11:50 32.01526 34.89028 148 ft 21 kts 80°
2026-05-07 11:51 32.01565 34.89160 148 ft 15 kts 29°
2026-05-07 11:51 32.01664 34.89153 148 ft 12 kts 350°
2026-05-07 11:51 32.01739 34.89131 148 ft 10 kts 319°
2026-05-07 11:51 32.01741 34.89072 148 ft 1 kts 260°
2026-05-07 11:52 32.01740 34.89057 148 ft 11 kts 261°
2026-05-07 11:52 32.01683 34.88673 148 ft 82 kts 259°
2026-05-07 11:52 32.01544 34.87769 148 ft 139 kts 261°
2026-05-07 11:53 32.01334 34.86471 285 ft 172 kts 261°
2026-05-07 11:53 32.01126 34.85115 961 ft 170 kts 263°
2026-05-07 11:53 32.00891 34.83758 1355 ft 175 kts 263°
2026-05-07 11:53 32.00600 34.82314 1608 ft 187 kts 261°
2026-05-07 11:54 32.00264 34.80809 1882 ft 197 kts 260°
2026-05-07 11:54 31.99922 34.79153 1956 ft 221 kts 261°
2026-05-07 11:54 31.99558 34.77331 2273 ft 233 kts 261°
2026-05-07 11:54 31.99203 34.75429 2497 ft 248 kts 266°
2026-05-07 11:55 31.99329 34.73389 2764 ft 255 kts 290°
2026-05-07 11:55 32.00007 34.71435 3216 ft 261 kts 297°
2026-05-07 11:55 32.00760 34.69470 3887 ft 266 kts 295°
2026-05-07 11:55 32.01465 34.67441 4626 ft 269 kts 292°
2026-05-07 11:56 32.02130 34.65367 5307 ft 274 kts 291°
2026-05-07 11:56 32.02682 34.63212 5967 ft 279 kts 281°
2026-05-07 11:56 32.02906 34.60957 6681 ft 280 kts 274°
2026-05-07 11:56 32.02997 34.58690 7466 ft 279 kts 272°
2026-05-07 11:57 32.03073 34.56396 7906 ft 282 kts 273°
2026-05-07 11:57 32.03167 34.54076 8007 ft 282 kts 274°
2026-05-07 11:57 32.03301 34.51779 8047 ft 286 kts 277°
2026-05-07 11:57 32.03759 34.49485 8664 ft 289 kts 293°
2026-05-07 11:58 32.04840 34.47540 9495 ft 285 kts 313°
2026-05-07 11:58 32.06358 34.46075 10156 ft 287 kts 326°
2026-05-07 11:58 32.08164 34.45012 10550 ft 301 kts 342°
2026-05-07 11:58 32.10312 34.44715 10863 ft 318 kts
2026-05-07 11:59 32.12531 34.45121 11140 ft 333 kts 11°
2026-05-07 11:59 32.14834 34.45767 11396 ft 348 kts 11°
2026-05-07 11:59 32.17281 34.46282 11613 ft 364 kts
2026-05-07 11:59 32.19849 34.46685 11852 ft 378 kts
2026-05-07 12:00 32.22524 34.47040 12109 ft 392 kts
2026-05-07 12:00 32.25248 34.47382 12608 ft 398 kts
2026-05-07 12:00 32.28020 34.47643 13158 ft 401 kts 360°
2026-05-07 12:00 32.30798 34.47386 13658 ft 402 kts 347°
2026-05-07 12:01 32.33425 34.46306 14325 ft 401 kts 332°
2026-05-07 12:01 32.35779 34.44530 14967 ft 401 kts 322°
2026-05-07 12:01 32.37905 34.42401 15582 ft 403 kts 317°
2026-05-07 12:01 32.39945 34.40107 16177 ft 405 kts 315°
2026-05-07 12:02 32.41916 34.37772 16774 ft 407 kts 314°
2026-05-07 12:02 32.43901 34.35385 17313 ft 410 kts 314°
2026-05-07 12:02 32.45926 34.32954 17921 ft 412 kts 314°
2026-05-07 12:02 32.47942 34.30554 18491 ft 414 kts 314°
2026-05-07 12:03 32.49995 34.28129 19001 ft 418 kts 315°
2026-05-07 12:03 32.52132 34.25826 19523 ft 421 kts 320°
2026-05-07 12:03 32.54533 34.23864 20100 ft 424 kts 329°
2026-05-07 12:03 32.57240 34.22394 20623 ft 429 kts 338°
2026-05-07 12:04 32.60133 34.21499 21126 ft 434 kts 347°
2026-05-07 12:04 32.63163 34.21063 21583 ft 440 kts 352°
2026-05-07 12:04 32.66209 34.20847 22092 ft 443 kts 354°
2026-05-07 12:04 32.69305 34.20683 22563 ft 445 kts 354°
2026-05-07 12:05 32.72413 34.20505 23046 ft 447 kts 353°
2026-05-07 12:05 32.75541 34.20290 23478 ft 450 kts 353°
2026-05-07 12:05 32.78665 34.20039 23924 ft 453 kts 352°
2026-05-07 12:05 32.81816 34.19753 24356 ft 455 kts 352°
2026-05-07 12:06 32.84972 34.19442 24737 ft 459 kts 351°
2026-05-07 12:06 32.88195 34.19105 25126 ft 462 kts 351°
2026-05-07 12:06 32.91396 34.18759 25569 ft 464 kts 351°
2026-05-07 12:06 32.94569 34.18408 26216 ft 461 kts 351°
2026-05-07 12:07 32.97755 34.18053 26879 ft 457 kts 350°
2026-05-07 12:07 33.00901 34.17698 27407 ft 456 kts 350°
2026-05-07 12:07 33.04085 34.17336 27919 ft 455 kts 350°
2026-05-07 12:07 33.07221 34.16977 28418 ft 454 kts 350°
2026-05-07 12:08 33.10395 34.16613 28887 ft 454 kts 350°
2026-05-07 12:08 33.13502 34.16256 29346 ft 453 kts 350°
2026-05-07 12:08 33.16635 34.15895 29797 ft 453 kts 350°
2026-05-07 12:08 33.19787 34.15532 30231 ft 452 kts 350°
2026-05-07 12:09 33.22899 34.15173 30666 ft 451 kts 350°
2026-05-07 12:09 33.26043 34.14811 31153 ft 449 kts 350°
2026-05-07 12:09 33.29134 34.14455 31652 ft 446 kts 350°
2026-05-07 12:09 33.32211 34.14101 32106 ft 444 kts 350°
2026-05-07 12:10 33.35296 34.13745 32542 ft 443 kts 350°
2026-05-07 12:10 33.38353 34.13391 32949 ft 441 kts 350°
2026-05-07 12:10 33.41425 34.13034 33329 ft 440 kts 350°
2026-05-07 12:10 33.44505 34.12677 33694 ft 439 kts 350°
2026-05-07 12:11 33.47573 34.12321 34049 ft 438 kts 350°
2026-05-07 12:11 33.53710 34.11605 34098 ft 441 kts 350°
2026-05-07 12:12 33.59803 34.10896 34099 ft 439 kts 350°
2026-05-07 12:12 33.65875 34.10190 34103 ft 439 kts 350°
2026-05-07 12:13 33.71989 34.09478 34103 ft 438 kts 350°
2026-05-07 12:13 33.78046 34.08851 34103 ft 440 kts 353°
2026-05-07 12:14 33.84158 34.09564 34109 ft 450 kts 10°
2026-05-07 12:14 33.90152 34.12001 34109 ft 457 kts 16°
2026-05-07 12:15 33.96073 34.14848 34107 ft 457 kts 17°
2026-05-07 12:15 34.01949 34.17718 34107 ft 457 kts 17°
2026-05-07 12:16 34.07875 34.20580 34106 ft 456 kts 17°
2026-05-07 12:16 34.13755 34.23390 34104 ft 455 kts 16°
2026-05-07 12:17 34.19678 34.26204 34107 ft 456 kts 16°
2026-05-07 12:17 34.25596 34.29011 34107 ft 456 kts 16°
2026-05-07 12:18 34.31495 34.31810 34109 ft 456 kts 16°
2026-05-07 12:18 34.37380 34.34605 34108 ft 455 kts 16°
2026-05-07 12:19 34.43261 34.37403 34107 ft 455 kts 16°
2026-05-07 12:19 34.49173 34.40199 34107 ft 454 kts 15°
2026-05-07 12:20 34.55087 34.42952 34109 ft 455 kts 15°
2026-05-07 12:20 34.60027 34.45247 34106 ft 456 kts 15°
2026-05-07 12:21 34.66917 34.48459 34107 ft 454 kts 15°
2026-05-07 12:21 34.72806 34.51213 34108 ft 455 kts 15°
2026-05-07 12:22 34.78720 34.53984 34108 ft 453 kts 15°
2026-05-07 12:22 34.84569 34.56730 34109 ft 453 kts 15°
2026-05-07 12:23 34.90453 34.59498 34109 ft 453 kts 15°
2026-05-07 12:23 34.96345 34.62142 34110 ft 449 kts 11°
2026-05-07 12:24 35.02414 34.63116 34110 ft 434 kts 351°
2026-05-07 12:24 35.08274 34.61666 34110 ft 425 kts 338°
2026-05-07 12:25 35.13631 34.58770 34110 ft 419 kts 327°
2026-05-07 12:25 35.18613 34.55144 34110 ft 417 kts 324°
2026-05-07 12:26 35.23565 34.51414 34110 ft 417 kts 325°
2026-05-07 12:26 35.28522 34.47749 34111 ft 417 kts 326°
2026-05-07 12:27 35.33501 34.44119 34110 ft 416 kts 326°
2026-05-07 12:27 35.38490 34.40499 34110 ft 417 kts 326°
2026-05-07 12:28 35.43495 34.36872 34112 ft 416 kts 326°
2026-05-07 12:28 35.48494 34.33244 34111 ft 416 kts 326°
2026-05-07 12:29 35.53452 34.29642 34112 ft 415 kts 326°
2026-05-07 12:29 35.58417 34.26029 34113 ft 414 kts 326°
2026-05-07 12:30 35.63361 34.22423 34112 ft 414 kts 326°
2026-05-07 12:30 35.68321 34.18803 34112 ft 413 kts 326°
2026-05-07 12:31 35.73277 34.15174 34112 ft 413 kts 326°
2026-05-07 12:31 35.78200 34.11541 34113 ft 413 kts 326°
2026-05-07 12:32 35.83122 34.07899 34112 ft 411 kts 326°
2026-05-07 12:32 35.87985 34.04297 34111 ft 411 kts 327°
2026-05-07 12:33 35.95369 33.98797 34110 ft 411 kts 326°
2026-05-07 12:33 36.00238 33.95118 34113 ft 410 kts 326°
2026-05-07 12:34 36.05121 33.91417 34111 ft 409 kts 326°
2026-05-07 12:34 36.09987 33.87728 34115 ft 410 kts 327°
2026-05-07 12:35 36.14840 33.84056 34113 ft 409 kts 327°
2026-05-07 12:35 36.19984 33.80943 34294 ft 418 kts 338°
2026-05-07 12:36 36.22767 33.79933 34544 ft 420 kts 344°
2026-05-07 12:36 36.25652 33.79337 34868 ft 421 kts 350°
2026-05-07 12:36 36.28592 33.79206 35097 ft 425 kts
2026-05-07 12:36 36.31497 33.80079 35129 ft 440 kts 18°
2026-05-07 12:37 36.34216 33.81956 35135 ft 451 kts 29°
2026-05-07 12:37 36.36758 33.84228 35137 ft 450 kts 30°
2026-05-07 12:37 36.41901 33.88718 35154 ft 450 kts 29°
2026-05-07 12:38 36.47041 33.93053 35155 ft 448 kts 28°
2026-05-07 12:38 36.52221 33.97403 35172 ft 449 kts 28°
2026-05-07 12:39 36.57417 34.01776 35188 ft 449 kts 28°
2026-05-07 12:39 36.62606 34.06159 35184 ft 449 kts 28°
2026-05-07 12:40 36.67767 34.10534 35195 ft 448 kts 28°
2026-05-07 12:40 36.72945 34.14932 35204 ft 448 kts 28°
2026-05-07 12:41 36.78101 34.19318 35200 ft 449 kts 28°
2026-05-07 12:41 36.83214 34.23679 35203 ft 447 kts 28°
2026-05-07 12:42 36.88358 34.28070 35195 ft 450 kts 28°
2026-05-07 12:42 36.93525 34.32489 35211 ft 449 kts 28°
2026-05-07 12:43 36.98683 34.36907 35204 ft 448 kts 28°
2026-05-07 12:43 37.03820 34.41317 35204 ft 448 kts 28°
2026-05-07 12:44 37.08980 34.45750 35207 ft 454 kts 28°
2026-05-07 12:44 37.14181 34.50226 35200 ft 453 kts 28°
2026-05-07 12:45 37.19364 34.54700 35203 ft 453 kts 28°
2026-05-07 12:45 37.24518 34.59155 35200 ft 451 kts 28°
2026-05-07 12:46 37.29706 34.63644 35193 ft 453 kts 28°
2026-05-07 12:46 37.34887 34.68135 35201 ft 453 kts 29°
2026-05-07 12:47 37.40054 34.72620 35184 ft 454 kts 29°
2026-05-07 12:47 37.45238 34.77130 35190 ft 452 kts 29°
2026-05-07 12:48 37.50384 34.81615 35201 ft 452 kts 29°
2026-05-07 12:48 37.55561 34.86134 35197 ft 450 kts 29°
2026-05-07 12:49 37.60685 34.90615 35207 ft 451 kts 29°
2026-05-07 12:49 37.65836 34.95125 35208 ft 451 kts 29°
2026-05-07 12:50 37.70983 34.99643 35213 ft 453 kts 29°
2026-05-07 12:50 37.76107 35.04147 35222 ft 451 kts 29°
2026-05-07 12:51 37.81263 35.08688 35212 ft 452 kts 29°
2026-05-07 12:51 37.86413 35.13229 35206 ft 451 kts 29°
2026-05-07 12:52 37.91527 35.17746 35200 ft 451 kts 29°
2026-05-07 12:52 37.96669 35.22294 35190 ft 451 kts 30°
2026-05-07 12:53 38.01801 35.26846 35171 ft 450 kts 30°
2026-05-07 12:53 38.06932 35.31403 35187 ft 449 kts 30°
2026-05-07 12:54 38.12072 35.35972 35218 ft 452 kts 30°
2026-05-07 12:54 38.17182 35.40526 35225 ft 451 kts 30°
2026-05-07 12:55 38.22324 35.45113 35219 ft 451 kts 30°
2026-05-07 12:55 38.27454 35.49696 35208 ft 451 kts 30°
2026-05-07 12:56 38.32580 35.54289 35203 ft 451 kts 30°
2026-05-07 12:56 38.37711 35.58910 35211 ft 451 kts 30°
2026-05-07 12:57 38.42827 35.63524 35252 ft 452 kts 30°
2026-05-07 12:57 38.47882 35.68096 35199 ft 445 kts 30°
2026-05-07 12:58 38.52961 35.72689 35214 ft 449 kts 30°
2026-05-07 12:58 38.58034 35.77287 35209 ft 448 kts 31°
2026-05-07 12:59 38.63117 35.81900 35210 ft 447 kts 31°
2026-05-07 12:59 38.68195 35.86519 35210 ft 449 kts 31°
2026-05-07 13:00 38.73254 35.91125 35199 ft 448 kts 31°
2026-05-07 13:00 38.78307 35.95736 35201 ft 448 kts 31°
2026-05-07 13:01 38.83390 36.00382 35206 ft 449 kts 31°
2026-05-07 13:01 38.88452 36.05019 35199 ft 448 kts 31°
2026-05-07 13:02 38.93548 36.09691 35206 ft 449 kts 31°
2026-05-07 13:02 38.98578 36.14316 35196 ft 447 kts 31°
2026-05-07 13:03 39.03656 36.18989 35190 ft 450 kts 31°
2026-05-07 13:03 39.08731 36.23669 35195 ft 448 kts 31°
2026-05-07 13:04 39.13781 36.28335 35204 ft 449 kts 31°
2026-05-07 13:04 39.18843 36.33022 35208 ft 449 kts 31°
2026-05-07 13:05 39.23936 36.37745 35209 ft 450 kts 31°
2026-05-07 13:05 39.29016 36.42465 35201 ft 449 kts 32°
2026-05-07 13:06 39.34085 36.47184 35208 ft 451 kts 32°
2026-05-07 13:06 39.39142 36.51897 35204 ft 450 kts 32°
2026-05-07 13:07 39.44184 36.56608 35209 ft 450 kts 32°
2026-05-07 13:07 39.49294 36.61391 35211 ft 450 kts 32°
2026-05-07 13:08 39.54361 36.66142 35209 ft 450 kts 33°
2026-05-07 13:08 39.59450 36.70920 35231 ft 453 kts 32°
2026-05-07 13:09 39.61984 36.73303 35567 ft 450 kts 33°
2026-05-07 13:09 39.64479 36.75653 35921 ft 447 kts 33°
2026-05-07 13:09 39.67002 36.78032 36138 ft 447 kts 33°
2026-05-07 13:09 39.69541 36.80426 36202 ft 450 kts 33°
2026-05-07 13:10 39.74695 36.84996 36205 ft 446 kts 27°
2026-05-07 13:10 39.77474 36.86653 36203 ft 440 kts 15°
2026-05-07 13:10 39.80435 36.87555 36204 ft 437 kts
2026-05-07 13:11 39.86482 36.87651 36212 ft 434 kts 353°
2026-05-07 13:11 39.92479 36.86531 36208 ft 433 kts 348°
2026-05-07 13:12 39.98394 36.85090 36210 ft 433 kts 348°
2026-05-07 13:12 40.04297 36.83641 36202 ft 432 kts 348°
2026-05-07 13:13 40.10092 36.82262 36204 ft 431 kts 348°
2026-05-07 13:13 40.16092 36.80861 36198 ft 431 kts 349°
2026-05-07 13:14 40.22022 36.79489 36210 ft 434 kts 349°
2026-05-07 13:14 40.27925 36.78124 36199 ft 432 kts 349°
2026-05-07 13:15 40.33886 36.76742 36195 ft 432 kts 349°
2026-05-07 13:15 40.39800 36.75368 36191 ft 432 kts 349°
2026-05-07 13:16 40.45701 36.73992 36186 ft 432 kts 349°
2026-05-07 13:16 40.51637 36.72609 36191 ft 432 kts 349°
2026-05-07 13:17 40.57569 36.71225 36185 ft 433 kts 349°
2026-05-07 13:17 40.63514 36.69837 36180 ft 432 kts 349°
2026-05-07 13:18 40.69410 36.68456 36177 ft 432 kts 349°
2026-05-07 13:18 40.75338 36.67064 36171 ft 432 kts 349°
2026-05-07 13:19 40.81263 36.65670 36174 ft 432 kts 349°
2026-05-07 13:19 40.87163 36.64276 36168 ft 431 kts 349°
2026-05-07 13:20 40.93065 36.62878 36166 ft 433 kts 349°
2026-05-07 13:20 40.98995 36.61472 36170 ft 433 kts 349°
2026-05-07 13:21 41.04915 36.60066 36162 ft 432 kts 350°
2026-05-07 13:21 41.10850 36.58654 36165 ft 432 kts 349°
2026-05-07 13:22 41.16761 36.57245 36161 ft 432 kts 350°
2026-05-07 13:22 41.22707 36.56115 36284 ft 434 kts 356°
2026-05-07 13:23 41.25728 36.56096 36541 ft 434 kts
2026-05-07 13:23 41.28729 36.56531 36738 ft 435 kts
2026-05-07 13:23 41.31688 36.57424 36916 ft 437 kts 15°
2026-05-07 13:23 41.34562 36.58765 37075 ft 439 kts 21°
2026-05-07 13:24 41.39831 36.62867 37150 ft 445 kts 34°
2026-05-07 13:24 41.44827 36.67713 37156 ft 442 kts 34°
2026-05-07 13:25 41.49887 36.72329 37152 ft 441 kts 31°
2026-05-07 13:25 41.55061 36.76688 37158 ft 441 kts 30°
2026-05-07 13:26 41.60333 36.80928 37156 ft 441 kts 29°
2026-05-07 13:26 41.65617 36.85092 37161 ft 441 kts 29°
2026-05-07 13:27 41.70866 36.89203 37167 ft 441 kts 29°
2026-05-07 13:27 41.76178 36.93358 37183 ft 441 kts 29°
2026-05-07 13:28 41.81461 36.97496 37186 ft 441 kts 29°
2026-05-07 13:28 41.86746 37.01645 37189 ft 439 kts 29°
2026-05-07 13:29 41.92031 37.05799 37188 ft 439 kts 29°
2026-05-07 13:29 41.97282 37.09925 37183 ft 439 kts 29°
2026-05-07 13:30 42.02583 37.14094 37175 ft 440 kts 29°
2026-05-07 13:30 42.07840 37.18236 37178 ft 440 kts 29°
2026-05-07 13:31 42.13131 37.22414 37186 ft 440 kts 29°
2026-05-07 13:31 42.18408 37.26590 37062 ft 439 kts 29°
2026-05-07 13:32 42.21024 37.28664 37331 ft 439 kts 29°
2026-05-07 13:32 42.23683 37.30774 37042 ft 443 kts 29°
2026-05-07 13:32 42.28941 37.34951 37224 ft 442 kts 29°
2026-05-07 13:33 42.31586 37.37056 37078 ft 441 kts 29°
2026-05-07 13:33 42.34219 37.39153 37182 ft 441 kts 29°
2026-05-07 13:33 42.39491 37.43358 37185 ft 443 kts 29°
2026-05-07 13:34 42.47398 37.49683 37184 ft 441 kts 29°
2026-05-07 13:35 42.52707 37.53939 37188 ft 442 kts 29°
2026-05-07 13:35 42.57997 37.58187 37191 ft 442 kts 29°
2026-05-07 13:36 42.63248 37.62413 37193 ft 442 kts 29°
2026-05-07 13:36 42.68544 37.66684 37195 ft 442 kts 30°
2026-05-07 13:37 42.73720 37.71195 37195 ft 441 kts 33°
2026-05-07 13:37 42.78763 37.75905 37189 ft 441 kts 34°
2026-05-07 13:38 42.83783 37.80624 37200 ft 442 kts 34°
2026-05-07 13:38 42.88850 37.85360 37199 ft 442 kts 33°
2026-05-07 13:39 42.93914 37.90073 37192 ft 441 kts 33°
2026-05-07 13:39 42.98972 37.94776 37195 ft 441 kts 33°
2026-05-07 13:40 43.04052 37.99504 37200 ft 441 kts 33°
2026-05-07 13:40 43.09105 38.04190 37190 ft 441 kts 33°
2026-05-07 13:41 43.14209 38.08919 37191 ft 442 kts 33°
2026-05-07 13:41 43.19314 38.13657 37201 ft 442 kts 33°
2026-05-07 13:42 43.24389 38.18379 37194 ft 441 kts 33°
2026-05-07 13:42 43.29438 38.23089 37200 ft 443 kts 33°
2026-05-07 13:43 43.34554 38.27870 37192 ft 449 kts 33°
2026-05-07 13:43 43.39691 38.32695 37186 ft 446 kts 34°
2026-05-07 13:43 43.42231 38.35107 37312 ft 447 kts 34°
2026-05-07 13:44 43.44776 38.37534 37172 ft 445 kts 34°
2026-05-07 13:44 43.49874 38.42411 37193 ft 448 kts 34°
2026-05-07 13:45 43.54984 38.47306 37061 ft 446 kts 34°
2026-05-07 13:45 43.57542 38.49759 37185 ft 443 kts 34°
2026-05-07 13:45 43.60067 38.52174 37194 ft 446 kts 34°
2026-05-07 13:46 43.65205 38.56978 37220 ft 448 kts 33°
2026-05-07 13:46 43.70349 38.61738 37298 ft 444 kts 33°
2026-05-07 13:47 43.73802 38.64937 37071 ft 445 kts 33°
2026-05-07 13:47 43.76369 38.67321 37267 ft 446 kts 34°
2026-05-07 13:47 43.78934 38.69709 37120 ft 445 kts 34°
2026-05-07 13:48 43.84093 38.74524 37535 ft 445 kts 34°
2026-05-07 13:48 43.86635 38.76902 37737 ft 442 kts 34°
2026-05-07 13:48 43.89181 38.79287 37920 ft 443 kts 34°
2026-05-07 13:49 43.94321 38.84111 38134 ft 445 kts 34°
2026-05-07 13:49 43.99450 38.88938 38218 ft 448 kts 34°
2026-05-07 13:50 44.04568 38.93769 38188 ft 444 kts 34°
2026-05-07 13:50 44.09668 38.98592 38195 ft 446 kts 34°
2026-05-07 13:51 44.14804 39.03540 38177 ft 451 kts 37°
2026-05-07 13:51 44.19681 39.08984 38169 ft 449 kts 40°
2026-05-07 13:52 44.24440 39.14640 38161 ft 449 kts 40°
2026-05-07 13:52 44.29185 39.20297 38170 ft 450 kts 40°
2026-05-07 13:53 44.33945 39.25939 38174 ft 450 kts 40°
2026-05-07 13:53 44.38715 39.31571 38175 ft 449 kts 40°
2026-05-07 13:54 44.43464 39.37170 38163 ft 447 kts 39°
2026-05-07 13:54 44.48235 39.42781 38162 ft 447 kts 38°
2026-05-07 13:55 44.53437 39.47467 38159 ft 448 kts 22°
2026-05-07 13:55 44.59460 39.49648 38156 ft 449 kts 10°
2026-05-07 13:56 44.65610 39.51008 38165 ft 449 kts
2026-05-07 13:56 44.71814 39.52277 38153 ft 447 kts
2026-05-07 13:57 44.77945 39.53576 38142 ft 446 kts
2026-05-07 13:57 44.84085 39.54923 38136 ft 445 kts
2026-05-07 13:58 44.90195 39.56285 38149 ft 447 kts
2026-05-07 13:58 44.96343 39.57700 38147 ft 446 kts 11°
2026-05-07 13:59 45.02367 39.59687 38142 ft 444 kts 15°
2026-05-07 13:59 45.08322 39.61997 38137 ft 446 kts 15°
2026-05-07 14:00 45.14313 39.64349 38142 ft 445 kts 15°
2026-05-07 14:00 45.20305 39.66595 38139 ft 445 kts 13°
2026-05-07 14:01 45.26438 39.67816 38124 ft 446 kts
2026-05-07 14:01 45.32645 39.68279 38123 ft 446 kts
2026-05-07 14:02 45.38811 39.68602 38130 ft 447 kts
2026-05-07 14:02 45.45050 39.68955 38125 ft 447 kts
2026-05-07 14:03 45.51231 39.69345 38137 ft 447 kts
2026-05-07 14:03 45.57439 39.69756 38117 ft 445 kts
2026-05-07 14:04 45.63635 39.70169 38118 ft 446 kts
2026-05-07 14:04 45.69836 39.70586 38125 ft 447 kts
2026-05-07 14:05 45.76008 39.71001 38112 ft 447 kts
2026-05-07 14:05 45.82212 39.71423 38118 ft 447 kts
2026-05-07 14:06 45.88419 39.71846 38119 ft 446 kts
2026-05-07 14:06 45.94590 39.72268 38111 ft 446 kts
2026-05-07 14:07 46.00795 39.72694 38116 ft 446 kts
2026-05-07 14:07 46.07024 39.73121 38109 ft 446 kts
2026-05-07 14:08 46.13104 39.73540 38108 ft 447 kts
2026-05-07 14:08 46.19422 39.73976 38106 ft 446 kts
2026-05-07 14:09 46.25615 39.74406 38108 ft 447 kts
2026-05-07 14:09 46.31884 39.74841 38102 ft 452 kts
2026-05-07 14:10 46.38132 39.75284 38104 ft 450 kts
2026-05-07 14:10 46.44367 39.75810 38103 ft 451 kts
2026-05-07 14:11 46.50598 39.76369 38100 ft 451 kts
2026-05-07 14:11 46.56902 39.76934 38109 ft 453 kts
2026-05-07 14:12 46.63180 39.77491 38099 ft 451 kts
2026-05-07 14:12 46.69443 39.78042 38101 ft 450 kts
2026-05-07 14:13 46.75692 39.78593 38097 ft 452 kts
2026-05-07 14:13 46.81957 39.79146 38085 ft 451 kts
2026-05-07 14:14 46.88240 39.79703 38084 ft 452 kts
2026-05-07 14:14 46.94452 39.80253 38079 ft 454 kts
2026-05-07 14:15 47.00780 39.80815 38080 ft 453 kts
2026-05-07 14:15 47.07091 39.81375 38076 ft 453 kts
2026-05-07 14:16 47.13331 39.81930 38076 ft 453 kts
2026-05-07 14:16 47.19643 39.82728 38076 ft 452 kts
2026-05-07 14:17 47.25788 39.84491 38071 ft 453 kts 14°
2026-05-07 14:17 47.31932 39.86682 38069 ft 454 kts 15°
2026-05-07 14:18 47.38046 39.88936 38073 ft 453 kts 15°
2026-05-07 14:18 47.44145 39.91173 38070 ft 454 kts 15°
2026-05-07 14:19 47.50269 39.93402 38063 ft 453 kts 15°
2026-05-07 14:19 47.56380 39.95867 38066 ft 454 kts 17°
2026-05-07 14:20 47.62430 39.98531 38065 ft 455 kts 18°
2026-05-07 14:20 47.68491 40.01218 38057 ft 456 kts 18°
2026-05-07 14:21 47.74559 40.03888 38060 ft 457 kts 17°
2026-05-07 14:21 47.80657 40.06558 38036 ft 456 kts 17°
2026-05-07 14:22 47.86734 40.09211 38052 ft 456 kts 17°
2026-05-07 14:22 47.92845 40.11508 38066 ft 456 kts 13°
2026-05-07 14:23 47.99067 40.13320 38076 ft 457 kts 12°
2026-05-07 14:23 48.05334 40.15070 38070 ft 458 kts 11°
2026-05-07 14:24 48.11607 40.16766 38052 ft 457 kts
2026-05-07 14:24 48.17878 40.18055 38058 ft 457 kts
2026-05-07 14:25 48.24183 40.19244 38060 ft 456 kts
2026-05-07 14:25 48.30497 40.20475 38050 ft 455 kts
2026-05-07 14:26 48.36737 40.21735 38052 ft 456 kts
2026-05-07 14:26 48.43027 40.23025 38043 ft 454 kts
2026-05-07 14:27 48.49300 40.24327 38040 ft 456 kts
2026-05-07 14:27 48.55587 40.25636 38047 ft 456 kts
2026-05-07 14:28 48.61848 40.26943 38035 ft 454 kts
2026-05-07 14:28 48.68113 40.28253 38046 ft 454 kts
2026-05-07 14:29 48.74379 40.29568 38042 ft 454 kts
2026-05-07 14:29 48.80640 40.30883 38036 ft 454 kts
2026-05-07 14:30 48.86897 40.32202 38017 ft 454 kts
2026-05-07 14:30 48.93121 40.33524 38034 ft 454 kts
2026-05-07 14:31 48.99372 40.34858 38016 ft 454 kts
2026-05-07 14:31 49.05624 40.36195 38023 ft 453 kts
2026-05-07 14:32 49.11850 40.37531 38037 ft 455 kts
2026-05-07 14:32 49.18136 40.38883 38032 ft 454 kts
2026-05-07 14:33 49.24372 40.40228 38034 ft 454 kts
2026-05-07 14:33 49.30626 40.41581 38001 ft 452 kts
2026-05-07 14:34 49.36913 40.42942 38028 ft 454 kts
2026-05-07 14:34 49.43163 40.44297 38015 ft 454 kts
2026-05-07 14:35 49.49421 40.45657 38006 ft 453 kts
2026-05-07 14:35 49.55694 40.46831 37998 ft 454 kts
2026-05-07 14:36 49.61956 40.47339 37995 ft 454 kts
2026-05-07 14:36 49.68278 40.47669 37999 ft 455 kts
2026-05-07 14:37 49.74601 40.48017 38002 ft 454 kts
2026-05-07 14:37 49.84041 40.48609 38001 ft 453 kts
2026-05-07 14:38 49.90334 40.49030 38009 ft 453 kts
2026-05-07 14:38 49.96600 40.49456 38001 ft 453 kts
2026-05-07 14:39 50.02895 40.49944 37996 ft 453 kts
2026-05-07 14:39 50.09097 40.51346 37991 ft 453 kts 13°
2026-05-07 14:40 50.15187 40.54055 37987 ft 454 kts 17°
2026-05-07 14:40 50.21138 40.57086 37985 ft 453 kts 18°
2026-05-07 14:41 50.27125 40.60165 37987 ft 453 kts 18°
2026-05-07 14:41 50.33108 40.63207 37989 ft 454 kts 18°
2026-05-07 14:42 50.39124 40.66240 37979 ft 453 kts 18°
2026-05-07 14:42 50.45095 40.69241 37980 ft 455 kts 19°
2026-05-07 14:43 50.51121 40.72270 37985 ft 457 kts 19°
2026-05-07 14:43 50.57168 40.75317 37978 ft 459 kts 19°
2026-05-07 14:44 50.63300 40.78413 37976 ft 464 kts 18°
2026-05-07 14:44 50.69395 40.81501 37970 ft 462 kts 18°
2026-05-07 14:45 50.75522 40.84617 37972 ft 461 kts 18°
2026-05-07 14:45 50.81583 40.87676 37971 ft 461 kts 17°
2026-05-07 14:46 50.87890 40.89414 37966 ft 461 kts
2026-05-07 14:46 50.94287 40.88527 37966 ft 464 kts 352°
2026-05-07 14:47 51.00604 40.86898 37964 ft 463 kts 350°
2026-05-07 14:47 51.06971 40.85146 37961 ft 464 kts 350°
2026-05-07 14:48 51.13308 40.83447 37965 ft 465 kts 351°
2026-05-07 14:48 51.19697 40.81782 37958 ft 463 kts 351°
2026-05-07 14:49 51.26031 40.80157 37967 ft 463 kts 351°
2026-05-07 14:49 51.32375 40.78538 37965 ft 463 kts 351°
2026-05-07 14:50 51.38743 40.76910 37963 ft 463 kts 351°
2026-05-07 14:50 51.45056 40.75293 37961 ft 464 kts 351°
2026-05-07 14:51 51.51449 40.73655 37964 ft 464 kts 351°
2026-05-07 14:51 51.57804 40.72022 37964 ft 462 kts 351°
2026-05-07 14:52 51.64093 40.70396 37964 ft 461 kts 351°
2026-05-07 14:52 51.70449 40.68749 37966 ft 461 kts 351°
2026-05-07 14:53 51.76734 40.67115 37970 ft 460 kts 351°
2026-05-07 14:53 51.83090 40.65455 37956 ft 461 kts 351°
2026-05-07 14:54 51.89379 40.63811 37974 ft 462 kts 351°
2026-05-07 14:54 51.95704 40.62155 37967 ft 461 kts 351°
2026-05-07 14:55 52.02058 40.60488 37972 ft 461 kts 351°
2026-05-07 14:55 52.08351 40.58832 37967 ft 460 kts 351°
2026-05-07 14:56 52.14686 40.57160 37964 ft 459 kts 351°
2026-05-07 14:56 52.20969 40.55495 37965 ft 460 kts 351°
2026-05-07 14:57 52.27292 40.53815 37963 ft 461 kts 351°
2026-05-07 14:57 52.33580 40.52140 37964 ft 460 kts 351°
2026-05-07 14:58 52.39898 40.50452 37963 ft 458 kts 351°
2026-05-07 14:58 52.46150 40.48680 37963 ft 458 kts 347°
2026-05-07 14:59 52.52157 40.45526 37961 ft 456 kts 336°
2026-05-07 14:59 52.57780 40.40773 37963 ft 455 kts 330°